CAPE
nan nan nan nan nan nan nan nan nan nan nan nan nan nan nan 1 nan nan nan nan nan nan nan nan nan nan nan 8 20 20 35 51 67 67 71 68 63 63 60 59 59 59 61 61 61 54 49 46 46 47 45 47 51 51 61 73 73 82 97 105 105 114 109 97 97 80 66 53 54 54 50 46 38 38 37 40 34 34 23 21 21 18 20 28 28 26
nan nan nan nan nan nan nan nan nan nan nan nan nan nan nan nan nan nan nan nan nan nan nan nan nan nan nan nan 19 19 30 44 60 60 65 66 67 67 67 70 70 73 75 76 76 71 62 60 60 60 60 62 57 57 64 78 78 88 92 95 95 100 94 86 86 74 63 57 49 49 41 39 35 35 33 37 30 30 21 16 16 9 7 8 8 17
nan nan nan nan nan nan nan nan nan nan nan nan nan nan nan nan nan nan nan nan nan nan nan nan nan nan nan nan 21 21 29 39 49 49 57 62 67 67 72 79 79 79 80 78 78 73 66 61 61 60 60 57 56 56 61 68 68 78 78 79 79 78 81 70 70 59 52 53 44 44 37 34 29 29 28 31 28 28 20 12 12 5 3 5 5 5
nan nan nan nan nan nan nan nan nan nan nan nan nan nan nan nan nan nan nan nan nan nan nan nan nan nan nan nan 13 13 29 36 45 45 55 62 70 70 73 74 74 77 73 76 76 72 64 59 59 55 53 54 53 53 56 58 58 62 60 60 60 58 58 51 51 47 40 40 40 40 35 29 27 27 25 27 23 23 17 11 11 5 5 6 6 6
nan nan nan nan nan nan nan nan nan nan nan 0 nan nan nan nan nan nan nan nan nan nan nan nan nan nan nan nan 5 5 29 37 45 45 56 63 68 68 70 68 68 69 69 73 73 71 64 61 61 54 50 50 49 49 49 51 51 49 48 44 44 47 46 44 44 38 33 34 34 34 28 23 20 20 20 23 22 22 21 14 14 9 8 8 8 6
nan nan nan nan nan nan nan nan 0 0 1 nan nan nan nan nan nan nan nan nan nan nan nan nan nan nan nan nan 4 4 26 35 43 43 52 57 59 59 59 60 60 61 66 73 73 73 70 66 66 61 62 60 56 56 51 49 49 48 45 45 45 52 52 43 43 37 33 27 26 26 20 16 15 15 16 19 21 21 19 15 15 10 9 8 8 6
nan nan nan nan nan nan nan nan 2 2 1 nan nan nan nan nan nan nan nan nan nan nan nan nan nan nan nan nan 9 9 23 29 36 36 41 43 45 45 49 52 52 59 66 72 72 83 96 122 122 113 99 105 89 89 86 74 74 61 63 66 66 68 63 50 50 41 32 27 19 19 13 8 9 9 13 16 18 18 16 11 11 10 8 8 8 6
nan nan nan nan nan nan nan nan nan nan nan nan nan nan nan nan nan nan nan nan nan nan nan nan nan nan nan nan nan nan nan nan nan nan 0 3 18 18 29 41 41 57 87 103 103 99 88 74 74 67 63 70 73 73 74 72 72 70 63 61 61 61 50 45 45 41 33 26 16 16 7 3 4 4 8 11 15 15 13 10 10 7 7 8 8 5
nan nan nan nan nan nan nan nan nan nan nan nan nan nan nan nan nan nan nan nan nan nan nan nan nan nan nan nan nan nan nan 1 nan nan nan nan nan nan 16 37 37 64 88 87 87 72 54 43 43 47 50 54 58 58 62 61 61 60 55 50 50 43 37 36 36 36 34 28 18 18 8 5 5 5 9 11 13 13 15 10 10 7 6 5 5 2
nan nan nan nan nan nan nan nan nan nan nan nan nan nan nan nan nan nan nan nan nan nan nan nan nan nan nan nan nan nan nan 0 19 19 32 20 36 36 31 38 38 56 54 46 46 36 28 30 30 35 42 48 53 53 58 56 56 56 53 48 48 40 32 30 30 29 31 27 20 20 11 7 6 6 9 10 14 14 12 8 8 4 4 3 3 1
nan nan nan nan nan nan nan nan nan nan nan nan nan nan nan nan nan nan nan nan nan nan nan nan nan nan nan nan nan nan nan nan nan nan 4 20 29 29 35 34 34 38 26 22 22 15 13 17 17 22 28 35 43 43 46 48 48 50 47 42 42 36 29 23 23 25 28 26 20 20 12 8 5 5 8 11 15 15 12 5 5 2 3 2 2 0
nan nan nan nan nan nan nan nan nan nan nan nan nan nan nan nan nan nan 1 2 2 3 0 nan nan nan nan nan nan nan nan nan nan nan nan 2 11 11 6 1 1 2 1 2 2 3 5 7 7 8 11 15 28 28 33 34 34 40 40 36 36 31 22 19 19 19 23 24 21 21 13 6 5 5 8 12 14 14 11 4 4 1 2 1 1 0
nan nan nan nan nan nan nan nan nan nan nan nan nan nan nan nan 1 1 3 7 7 4 nan nan nan nan nan nan nan nan nan nan nan nan 0 nan nan nan nan nan nan nan nan nan nan nan 2 8 8 9 9 10 16 16 23 26 26 32 31 28 28 23 19 17 17 19 20 20 17 17 12 5 4 4 8 11 15 15 11 6 6 2 2 1 1 0
nan nan nan nan nan nan nan nan nan nan nan nan nan nan nan 0 3 3 8 6 6 0 nan nan nan nan nan nan nan nan nan nan nan nan 0 nan nan nan nan nan nan nan nan nan nan nan 0 2 2 1 8 8 10 10 10 17 17 26 25 25 25 23 19 19 19 21 21 20 15 15 11 6 3 3 6 11 14 14 13 6 6 2 2 1 1 0
nan nan nan nan nan nan nan nan nan nan nan nan nan nan 0 1 4 4 7 1 1 nan 0 nan nan nan nan nan nan nan nan nan 0 0 nan nan nan nan nan nan nan nan nan nan nan nan nan 0 0 nan nan 1 2 2 4 8 8 21 20 25 25 24 23 23 23 22 21 18 14 14 12 7 4 4 5 8 14 14 13 7 7 2 2 1 1 1
nan nan nan nan nan nan 0 0 nan nan nan nan nan nan 0 2 3 3 3 0 0 0 0 1 1 nan nan nan nan nan nan 1 1 1 nan nan nan nan nan nan nan nan nan nan nan nan nan nan nan nan nan 4 9 9 9 11 11 20 21 23 23 24 24 23 23 22 22 19 16 16 12 8 4 4 4 6 12 12 12 8 8 3 2 1 1 0
nan 2 6 6 6 4 1 0 nan nan nan nan nan nan nan 1 1 1 0 0 0 0 1 1 1 0 nan nan nan nan nan 0 nan nan nan nan nan nan nan nan nan nan nan nan nan nan nan nan nan nan nan 8 12 12 13 16 16 22 25 28 28 26 25 25 25 24 22 19 17 17 13 10 5 5 4 5 9 9 10 7 7 3 1 1 1 nan
12 10 6 1 1 nan nan nan nan nan nan nan nan nan nan nan nan nan nan 0 0 0 0 0 0 0 nan nan nan nan nan nan 0 0 0 nan nan nan nan nan nan nan nan nan nan nan nan nan nan nan 1 15 15 15 17 23 23 26 30 30 30 26 26 24 24 22 21 19 17 17 12 8 4 4 4 5 7 7 8 6 6 2 0 1 1 nan
6 nan nan nan nan nan nan nan nan nan nan nan nan nan nan nan nan nan 0 0 0 nan nan nan nan 0 0 0 nan nan nan 0 2 2 2 1 nan nan nan nan nan nan nan nan nan nan nan nan nan 12 17 20 19 19 22 24 24 25 28 26 26 26 22 20 20 21 20 19 15 15 11 7 3 3 3 5 6 6 7 4 4 2 1 1 1 nan
nan nan nan nan nan nan nan nan nan nan nan nan nan nan nan nan nan nan nan nan nan nan nan nan nan nan 0 0 nan nan nan 1 3 3 4 2 nan nan nan nan nan 1 0 nan nan nan nan 1 1 9 21 22 19 19 21 22 22 22 22 22 22 19 18 17 17 18 18 17 14 14 11 5 3 3 3 4 6 6 6 4 4 1 1 1 1 0
nan nan nan nan nan nan nan nan nan nan 2 3 nan nan nan nan nan nan nan nan nan nan nan nan nan nan nan 0 nan nan nan 2 3 3 3 2 nan nan nan nan nan 1 1 nan nan nan nan nan nan nan 11 19 17 17 16 16 16 16 18 19 19 17 15 14 14 14 15 15 13 13 9 5 3 3 3 3 4 4 5 2 2 1 0 1 1 0
nan nan nan nan nan nan nan nan 5 5 26 14 0 0 nan nan nan nan nan nan nan nan nan nan nan nan nan 1 nan nan nan 3 4 4 3 2 nan nan nan 0 0 1 0 nan nan nan nan nan nan nan 4 15 15 15 15 15 15 15 16 17 17 15 13 12 12 11 12 12 12 12 8 5 3 3 2 3 4 4 3 2 2 1 1 1 1 0
nan nan nan nan nan nan 5 4 2 2 nan nan nan nan nan nan nan nan nan nan nan nan nan nan nan nan nan nan nan nan 0 4 8 8 7 1 nan nan nan nan nan 0 0 nan nan nan nan nan nan nan 6 18 15 15 15 15 15 16 13 13 13 11 9 9 9 8 9 9 10 10 8 5 3 3 2 2 3 3 3 2 2 1 1 1 1 1
nan nan 4 3 3 nan nan nan nan nan nan nan nan nan nan nan nan nan nan nan nan nan nan nan nan nan nan 0 1 1 3 8 12 12 9 3 nan nan nan nan nan 1 nan nan nan nan nan nan nan nan 2 16 15 15 14 13 13 12 11 9 9 8 6 6 6 5 6 7 8 8 7 5 3 3 2 2 2 2 3 2 2 2 1 1 1 1
nan nan nan nan nan nan nan nan nan nan nan nan nan nan nan nan 0 0 nan nan nan nan nan nan nan nan 1 13 5 5 2 5 12 12 7 2 nan nan nan nan nan 0 nan nan nan nan 0 0 0 0 0 5 12 12 10 9 9 9 8 8 8 6 5 3 3 3 3 5 6 6 5 4 2 2 1 1 2 2 2 2 2 2 1 1 1 0
21 24 30 60 60 142 162 174 166 166 88 8 2 2 13 22 23 23 13 6 6 4 6 3 3 2 3 3 2 2 0 1 6 6 6 1 nan nan nan nan nan 0 0 nan nan 0 2 0 0 nan nan nan 7 7 6 7 7 7 6 5 5 4 2 2 2 2 2 3 3 3 3 3 2 2 0 0 1 1 2 2 2 2 1 nan nan nan
137 151 187 195 195 189 158 137 135 135 147 109 39 39 20 14 12 12 6 5 5 7 5 6 6 5 3 2 1 1 0 3 1 1 1 1 nan nan nan nan nan nan 1 0 0 3 8 0 0 nan nan nan nan nan 3 3 3 4 3 4 4 2 2 3 3 2 2 2 3 3 3 2 1 1 0 0 0 0 1 1 1 1 nan nan nan nan
134 137 127 126 126 121 127 135 141 141 145 138 131 131 60 11 2 2 2 2 2 3 2 3 3 2 1 1 nan nan 0 nan nan nan nan nan nan nan nan nan nan nan 1 2 2 5 11 1 1 nan nan nan nan nan nan 1 1 1 1 nan nan 4 7 5 5 3 2 1 2 2 2 1 0 0 0 0 nan nan 0 0 0 nan nan nan nan nan
95 98 99 105 105 110 113 114 111 111 109 100 100 100 56 10 5 5 4 3 3 2 2 2 2 2 1 0 nan nan nan 0 nan nan nan nan nan nan nan nan nan 2 7 3 3 0 0 nan nan nan nan nan nan nan nan 9 9 9 nan nan nan 0 4 6 6 5 3 2 1 1 1 0 0 0 0 nan nan nan nan nan nan nan nan nan nan nan
29 58 67 80 80 89 79 41 60 60 82 87 91 91 72 21 12 12 5 0 0 nan nan 2 2 2 0 nan nan nan nan nan nan nan nan nan 0 0 1 5 5 11 3 0 0 nan nan nan nan nan nan nan 1 1 2 nan nan nan nan nan nan nan 0 5 5 6 4 3 2 2 1 0 0 0 0 nan nan nan nan nan nan nan nan nan nan 0
nan nan nan 1 1 2 nan nan 4 4 62 87 83 83 50 nan nan nan nan nan nan nan nan 0 0 0 0 nan nan nan nan nan nan nan 2 6 4 4 4 1 1 nan nan 1 1 nan nan nan nan nan nan nan nan nan nan nan nan nan nan nan nan nan nan 3 3 6 5 3 2 2 1 0 0 0 0 nan nan nan nan nan nan nan nan 1 1 2
nan nan nan nan nan nan nan nan nan nan nan nan nan nan 2 5 1 1 nan nan nan nan nan nan nan 0 1 1 nan nan nan nan nan nan nan nan nan nan nan nan nan nan 0 5 5 4 0 nan nan nan nan nan nan nan nan nan nan nan nan nan nan nan 0 2 2 9 18 3 0 0 1 1 0 0 0 nan nan nan nan nan nan nan nan 2 2 4
4 1 nan nan nan nan nan nan nan nan nan nan nan nan nan nan 6 6 1 nan nan nan nan nan nan 0 0 1 0 0 nan nan 2 2 5 nan nan nan nan nan nan 0 1 2 2 5 2 0 0 nan nan nan nan nan nan nan nan nan nan nan nan nan nan 2 2 13 31 10 nan nan 0 1 1 1 0 nan nan nan nan nan nan nan nan 2 2 4
nan nan nan nan nan nan nan nan nan nan nan nan nan nan nan nan nan nan 2 nan nan nan nan 0 0 0 0 0 0 0 nan nan 5 5 5 nan nan nan 0 nan nan 0 1 1 1 3 3 2 2 0 nan nan nan nan nan nan nan nan nan nan nan nan 0 3 3 17 64 34 0 0 nan 0 0 0 0 nan nan nan nan nan nan nan nan 0 0 3
nan nan nan nan nan nan nan nan nan nan nan nan nan nan nan nan nan nan nan nan nan nan nan nan nan nan nan nan nan nan nan nan 2 2 8 0 nan nan nan 0 0 0 0 1 1 1 2 1 1 2 0 nan nan nan nan nan nan nan nan nan nan nan 2 5 5 18 81 82 13 13 nan nan nan nan nan nan nan nan nan nan nan nan nan nan nan nan
nan nan nan nan nan nan nan nan nan nan nan nan nan nan nan nan nan nan nan nan nan 0 2 nan nan nan nan nan nan nan nan nan 1 1 7 1 nan nan nan nan nan 0 0 1 1 1 0 1 1 1 2 nan nan nan nan nan nan nan nan nan nan nan 3 12 12 29 85 95 46 46 4 nan nan nan nan nan nan nan nan nan nan nan nan nan nan nan
nan nan nan nan nan nan nan nan nan nan nan nan nan nan nan nan nan nan nan nan nan nan nan 3 3 2 7 nan nan nan nan nan nan nan 3 0 nan nan nan 0 0 2 0 nan nan 0 0 0 0 1 1 0 nan nan nan nan nan nan nan nan nan nan nan 1 1 16 60 59 66 66 14 nan nan nan nan nan nan nan nan nan nan nan nan nan nan nan
nan nan nan nan nan nan nan nan nan nan nan nan nan nan nan nan nan nan nan nan nan nan nan nan nan nan 8 17 1 1 nan nan nan nan nan nan nan nan nan nan nan 0 0 nan nan 0 nan nan nan nan nan nan nan nan nan nan nan nan nan nan nan nan nan nan nan 0 21 53 49 49 23 4 nan nan nan nan nan nan 0 0 0 nan nan nan nan nan
nan nan nan 0 0 nan nan nan nan nan nan nan nan nan nan nan nan nan nan nan nan nan nan nan nan nan nan nan 8 8 8 0 nan nan nan nan nan nan nan nan nan nan nan nan nan nan nan nan nan nan nan nan nan nan nan nan nan nan nan nan nan nan nan nan nan 7 23 70 45 45 37 14 1 1 1 1 2 2 3 3 3 0 nan nan nan nan
nan nan nan 1 1 nan nan nan nan nan nan nan 1 1 nan nan nan nan nan nan nan nan nan nan nan nan nan 1 3 3 4 0 2 2 nan nan nan nan nan nan nan nan nan nan nan nan nan nan nan nan 0 nan nan nan nan nan nan nan 1 nan nan nan nan nan nan 0 14 41 54 54 65 41 20 20 8 4 4 4 4 3 3 0 nan nan nan nan
nan nan nan nan nan nan nan nan nan nan nan nan nan nan nan nan nan nan nan nan nan nan nan nan nan nan nan nan nan nan nan nan 1 1 nan nan nan nan nan nan nan nan nan nan nan nan nan nan nan nan nan nan 1 1 1 nan nan 2 5 1 1 0 0 nan nan nan nan 8 40 40 49 48 26 26 16 8 7 7 2 3 3 1 nan nan nan 0
2 nan nan nan nan nan nan nan nan nan nan nan nan nan nan nan nan nan nan nan nan nan nan nan nan nan nan nan nan nan nan nan nan nan nan nan nan nan nan nan nan nan nan nan nan nan 0 0 0 0 nan 0 1 1 0 0 0 2 4 3 3 2 1 nan nan nan nan 3 24 24 32 62 51 51 21 13 11 11 4 3 3 0 0 2 2 1
nan nan nan nan nan nan nan 1 0 0 nan nan nan nan nan nan nan nan nan nan nan nan nan nan nan nan nan nan nan nan nan nan nan nan nan nan nan nan nan nan nan nan nan nan nan nan 0 2 2 0 0 1 1 1 0 0 0 0 2 5 5 6 nan nan nan nan 0 4 16 16 42 56 63 63 29 12 11 11 8 1 1 nan nan 2 2 2
nan nan nan nan nan nan nan nan nan nan nan nan nan nan nan nan 1 1 0 nan nan nan nan nan nan nan nan nan nan nan nan nan nan nan nan 1 nan nan nan nan nan nan nan nan nan nan nan 1 1 0 1 2 3 3 1 0 0 0 nan 3 3 6 0 nan nan nan 3 9 29 29 72 50 53 53 40 18 9 9 13 11 11 10 3 3 3 3
nan nan nan nan nan nan nan nan nan nan nan nan nan nan nan nan 2 2 nan nan nan nan nan nan nan nan nan nan nan nan nan nan nan nan nan 3 21 21 1 nan nan nan nan nan nan nan nan nan nan nan 1 4 3 3 1 0 0 nan 1 3 3 6 2 nan nan nan nan 2 12 12 64 54 35 35 51 39 19 19 20 22 22 18 11 8 8 5
nan nan nan nan nan nan nan nan nan nan nan nan nan nan nan nan nan nan nan nan nan nan nan nan nan nan nan nan nan nan nan nan nan nan nan nan nan nan 2 2 2 0 nan nan nan nan nan nan nan nan 2 4 4 4 2 0 0 nan 1 5 5 6 3 0 0 nan nan 0 4 4 15 53 46 46 63 46 29 29 28 23 23 18 14 10 10 10
nan nan nan nan nan nan nan nan nan nan nan nan nan nan nan nan nan nan nan nan nan nan nan nan nan nan nan nan nan nan nan nan nan nan nan nan nan nan nan 0 0 6 1 nan nan nan nan nan nan nan 0 2 1 1 0 0 0 0 1 2 2 6 3 nan nan nan nan nan 0 0 9 30 23 23 70 59 45 45 39 28 28 13 7 6 6 9
nan nan nan nan nan nan nan nan nan nan nan nan nan nan nan nan nan nan nan nan nan nan 0 nan nan nan nan nan nan nan nan nan nan nan nan nan nan nan nan nan nan 1 5 7 7 5 0 nan nan nan 0 0 nan nan nan 0 0 1 2 3 3 5 1 nan nan nan 0 nan 0 0 9 22 30 30 48 72 68 68 60 39 39 16 3 3 3 12
nan nan nan nan nan nan nan nan nan nan nan nan nan nan nan 1 13 13 0 nan nan nan nan nan nan nan nan nan nan nan 1 0 nan nan nan nan nan nan nan nan nan nan nan 2 2 2 2 2 2 1 nan 0 nan nan nan 0 0 1 2 4 4 4 1 nan nan nan 1 nan 0 0 6 20 24 24 61 77 66 66 60 52 52 34 11 15 15 40
nan nan nan nan nan nan nan nan nan nan nan nan nan nan nan nan nan nan nan nan nan nan nan nan nan nan nan nan nan nan nan nan nan nan nan nan nan nan nan nan nan 0 nan nan nan nan nan 2 2 3 7 3 nan nan nan 0 0 1 3 4 4 3 1 1 1 0 0 0 nan nan 3 20 20 20 68 88 72 72 58 55 55 43 33 40 40 47
nan nan nan nan nan nan nan nan nan nan nan nan nan nan nan nan nan nan nan nan nan nan nan nan nan nan nan nan nan nan 1 nan nan nan nan nan nan nan nan nan nan nan nan 0 0 3 4 2 2 1 8 18 5 5 nan nan nan 1 4 5 5 4 3 1 1 0 1 1 nan nan 3 14 14 14 39 96 67 67 45 54 54 44 58 72 72 44
CIN
nan nan nan nan nan nan nan nan nan nan nan nan nan nan nan -15 nan nan nan nan nan nan nan nan nan nan nan -0 -0 -0 -0 -0 -0 -0 -0 -0 -0 -0 -0 -0 -0 -0 -0 -0 -0 -0 -0 -0 -0 -0 -0 -0 -0 -0 -0 -0 -0 -0 -0 -0 -0 -0 -0 -0 -0 -0 -0 -0 -0 -0 -0 -0 -0 -0 -0 -0 -0 -0 -0 -0 -0 -0 -0 -0 -0 -1
nan nan nan nan nan nan nan nan nan nan nan nan nan nan nan nan nan nan nan nan nan nan nan nan nan nan nan nan -0 -0 -0 -0 -0 -0 -0 -0 -0 -0 -0 -0 -0 -0 -0 -0 -0 -0 -0 -0 -0 -0 -0 -0 -0 -0 -0 -0 -0 -0 -0 -0 -0 -0 -0 -0 -0 -0 -0 -0 -0 -0 -0 -0 -0 -0 -0 -0 -0 -0 -0 -0 -0 -0 -0 -0 -0 -0
nan nan nan nan nan nan nan nan nan nan nan nan nan nan nan nan nan nan nan nan nan nan nan nan nan nan nan nan -0 -0 -0 -0 -0 -0 -0 -0 -0 -0 -0 -0 -0 -0 -0 -0 -0 -0 -0 -0 -0 -0 -0 -0 -0 -0 -0 -0 -0 -0 -0 -0 -0 -0 -0 -0 -0 -0 -0 -0 -0 -0 -0 -0 -0 -0 -0 -0 -0 -0 -0 -0 -0 -0 -0 -0 -0 -0
nan nan nan nan nan nan nan nan nan nan nan nan nan nan nan nan nan nan nan nan nan nan nan nan nan nan nan nan -0 -0 -0 -0 -0 -0 -0 -0 -0 -0 -0 -0 -0 -0 -0 -0 -0 -0 -0 -0 -0 -0 -0 -0 -0 -0 -0 -0 -0 -0 -0 -0 -0 -0 -0 -0 -0 -0 -0 -0 -0 -0 -0 -0 -0 -0 -0 -0 -0 -0 -0 -0 -0 -0 -0 -0 -0 -0
nan nan nan nan nan nan nan nan nan nan nan -35 nan nan nan nan nan nan nan nan nan nan nan nan nan nan nan nan -0 -0 -0 -0 -0 -0 -0 -0 -0 -0 -0 -0 -0 -0 -0 -0 -0 -0 -0 -0 -0 -0 -0 -0 -0 -0 -0 -0 -0 -0 -0 -0 -0 -0 -0 -0 -0 -0 -0 -0 -0 -0 -0 -0 -0 -0 -0 -0 -0 -0 -0 -0 -0 -0 -0 -0 -0 -0
nan nan nan nan nan nan nan nan -8 -8 -21 nan nan nan nan nan nan nan nan nan nan nan nan nan nan nan nan nan -0 -0 -0 -0 -0 -0 -0 -0 -0 -0 -0 -0 -0 -0 -0 -0 -0 -0 -0 -0 -0 -0 -0 -0 -0 -0 -0 -0 -0 -0 -0 -0 -0 -0 -0 -0 -0 -0 -0 -0 -0 -0 -0 -0 -0 -0 -0 -0 -0 -0 -0 -0 -0 -0 -0 -0 -0 -0
nan nan nan nan nan nan nan nan -3 -3 -16 nan nan nan nan nan nan nan nan nan nan nan nan nan nan nan nan nan -0 -0 -0 -0 -0 -0 -0 -0 -0 -0 -0 -0 -0 -0 -0 -0 -0 -0 -0 -0 -0 -0 -0 -0 -0 -0 -0 -0 -0 -0 -0 -0 -0 -0 -0 -0 -0 -0 -0 -0 -0 -0 -0 -0 -0 -0 -0 -0 -0 -0 -0 -0 -0 -0 -0 -0 -0 -0
nan nan nan nan nan nan nan nan nan nan nan nan nan nan nan nan nan nan nan nan nan nan nan nan nan nan nan nan nan nan nan nan nan nan -0 -0 -0 -0 -0 -0 -0 -0 -0 -0 -0 -0 -0 -0 -0 -0 -0 -0 -0 -0 -0 -0 -0 -0 -0 -0 -0 -0 -0 -0 -0 -0 -0 -0 -0 -0 -0 -0 -0 -0 -0 -0 -0 -0 -0 -0 -0 -0 -0 -0 -0 -0
nan nan nan nan nan nan nan nan nan nan nan nan nan nan nan nan nan nan nan nan nan nan nan nan nan nan nan nan nan nan nan -0 nan nan nan nan nan nan -0 -0 -0 -0 -0 -0 -0 -0 -0 -0 -0 -0 -0 -0 -0 -0 -0 -0 -0 -0 -0 -0 -0 -0 -0 -0 -0 -0 -0 -0 -0 -0 -0 -0 -0 -0 -0 -0 -0 -0 -0 -0 -0 -0 -0 -0 -0 -0
nan nan nan nan nan nan nan nan nan nan nan nan nan nan nan nan nan nan nan nan nan nan nan nan nan nan nan nan nan nan nan -0 -0 -0 -0 -0 -0 -0 -0 -0 -0 -0 -0 -0 -0 -0 -0 -0 -0 -0 -0 -0 -0 -0 -0 -0 -0 -0 -0 -0 -0 -0 -0 -0 -0 -0 -0 -0 -0 -0 -0 -0 -0 -0 -0 -0 -0 -0 -0 -0 -0 -1 -0 -0 -0 -0
nan nan nan nan nan nan nan nan nan nan nan nan nan nan nan nan nan nan nan nan nan nan nan nan nan nan nan nan nan nan nan nan nan nan -0 -0 -0 -0 -0 -0 -0 -0 -0 -0 -0 -0 -0 -0 -0 -0 -0 -0 -0 -0 -0 -0 -0 -0 -0 -0 -0 -0 -0 -0 -0 -0 -0 -0 -0 -0 -0 -0 -0 -0 -0 -0 -0 -0 -0 -1 -1 -2 -1 -0 -0 -0
nan nan nan nan nan nan nan nan nan nan nan nan nan nan nan nan nan nan -7 -2 -2 -0 -11 nan nan nan nan nan nan nan nan nan nan nan nan -6 -2 -2 -4 -9 -9 -0 -0 -0 -0 -0 -0 -0 -0 -0 -0 -0 -0 -0 -0 -0 -0 -0 -0 -0 -0 -0 -0 -0 -0 -0 -0 -0 -0 -0 -0 -0 -0 -0 -0 -0 -0 -0 -0 -1 -1 -2 -2 -1 -1 -0
nan nan nan nan nan nan nan nan nan nan nan nan nan nan nan nan -19 -19 -15 -4 -4 -6 nan nan nan nan nan nan nan nan nan nan nan nan -0 nan nan nan nan nan nan nan nan nan nan nan -0 -0 -0 -0 -0 -0 -0 -0 -0 -0 -0 -0 -0 -0 -0 -0 -0 -0 -0 -0 -0 -0 -0 -0 -0 -0 -0 -0 -0 -0 -0 -0 -0 -1 -1 -2 -2 -1 -1 -0
nan nan nan nan nan nan nan nan nan nan nan nan nan nan nan -13 -9 -9 -5 -4 -4 -14 nan nan nan nan nan nan nan nan nan nan nan nan -8 nan nan nan nan nan nan nan nan nan nan nan -0 -0 -0 -0 -0 -0 -0 -0 -0 -0 -0 -0 -0 -0 -0 -0 -0 -0 -0 -0 -0 -0 -0 -0 -0 -0 -0 -0 -0 -0 -0 -0 -0 -1 -1 -2 -2 -1 -1 -0
nan nan nan nan nan nan nan nan nan nan nan nan nan nan -16 -12 -7 -7 -3 -10 -10 nan -6 nan nan nan nan nan nan nan nan nan -5 -5 nan nan nan nan nan nan nan nan nan nan nan nan nan -4 -4 nan nan -0 -0 -0 -0 -0 -0 -0 -0 -0 -0 -0 -0 -0 -0 -0 -0 -0 -0 -0 -0 -0 -0 -0 -0 -0 -0 -0 -1 -1 -1 -2 -2 -1 -1 -0
nan nan nan nan nan nan -22 -24 nan nan nan nan nan nan -12 -7 -7 -7 -5 -6 -6 -6 -3 -1 -1 nan nan nan nan nan nan -9 -7 -7 nan nan nan nan nan nan nan nan nan nan nan nan nan nan nan nan nan -0 -0 -0 -0 -0 -0 -0 -0 -0 -0 -0 -0 -0 -0 -0 -0 -0 -0 -0 -0 -0 -0 -0 -0 -0 -0 -0 -1 -1 -1 -2 -2 -2 -2 -1
nan -15 -12 -13 -13 -13 -16 -20 nan nan nan nan nan nan nan -13 -11 -11 -7 -7 -7 -4 -0 -1 -1 -0 nan nan nan nan nan -8 nan nan nan nan nan nan nan nan nan nan nan nan nan nan nan nan nan nan nan -0 -0 -0 -0 -0 -0 -0 -0 -0 -0 -0 -0 -0 -0 -0 -0 -0 -0 -0 -0 -0 -0 -0 -0 -0 -0 -0 -1 -1 -1 -2 -3 -2 -2 nan
-9 -12 -12 -13 -13 nan nan nan nan nan nan nan nan nan nan nan nan nan nan -6 -6 -3 -1 -1 -1 -0 nan nan nan nan nan nan -3 -3 -0 nan nan nan nan nan nan nan nan nan nan nan nan nan nan nan -1 -0 -0 -0 -0 -0 -0 -0 -0 -0 -0 -0 -0 -0 -0 -0 -0 -0 -0 -0 -0 -0 -0 -0 -0 -0 -0 -0 -1 -1 -1 -2 -3 -2 -2 nan
-12 nan nan nan nan nan nan nan nan nan nan nan nan nan nan nan nan nan -8 -6 -6 nan nan nan nan -2 -2 -1 nan nan nan -11 -2 -2 -1 -1 nan nan nan nan nan nan nan nan nan nan nan nan nan -0 -0 -0 -0 -0 -0 -0 -0 -0 -0 -0 -0 -0 -0 -0 -0 -0 -0 -0 -0 -0 -0 -0 -0 -0 -0 -0 -0 -0 -1 -1 -1 -2 -2 -2 -2 nan
nan nan nan nan nan nan nan nan nan nan nan nan nan nan nan nan nan nan nan nan nan nan nan nan nan nan -3 -3 nan nan nan -12 -4 -4 -2 -1 nan nan nan nan nan -0 -2 nan nan nan nan -14 -14 -3 -0 -0 -0 -0 -0 -0 -0 -0 -0 -0 -0 -0 -0 -0 -0 -0 -0 -0 -0 -0 -0 -0 -0 -0 -0 -0 -0 -0 -0 -1 -1 -1 -2 -2 -2 -1
nan nan nan nan nan nan nan nan nan nan -3 -4 nan nan nan nan nan nan nan nan nan nan nan nan nan nan nan -6 nan nan nan -11 -2 -2 -2 -0 nan nan nan nan nan -3 -0 nan nan nan nan nan nan nan -0 -0 -0 -0 -0 -0 -0 -0 -0 -0 -0 -0 -0 -0 -0 -0 -0 -0 -0 -0 -0 -0 -0 -0 -0 -0 -0 -0 -1 -1 -1 -2 -2 -1 -1 -1
nan nan nan nan nan nan nan nan -2 -2 -0 -2 -7 -7 nan nan nan nan nan nan nan nan nan nan nan nan nan -9 nan nan nan -13 -3 -3 -2 -1 nan nan nan -7 -7 -4 -2 nan nan nan nan nan nan nan -0 -0 -0 -0 -0 -0 -0 -0 -0 -0 -0 -0 -0 -0 -0 -0 -0 -0 -0 -0 -0 -0 -0 -0 -0 -0 -0 -0 -1 -1 -1 -1 -1 -1 -1 -1
nan nan nan nan nan nan -10 -15 -18 -18 nan nan nan nan nan nan nan nan nan nan nan nan nan nan nan nan nan nan nan nan -22 -9 -3 -3 -1 -0 nan nan nan nan nan -1 -2 nan nan nan nan nan nan nan -0 -0 -0 -0 -0 -0 -0 -0 -0 -0 -0 -0 -0 -0 -0 -0 -0 -0 -0 -0 -0 -0 -0 -0 -0 -0 -0 -0 -0 -1 -1 -1 -1 -1 -1 -1
nan nan -9 -14 -14 nan nan nan nan nan nan nan nan nan nan nan nan nan nan nan nan nan nan nan nan nan nan -5 -7 -7 -7 -5 -2 -2 -0 -0 nan nan nan nan nan -0 nan nan nan nan nan nan nan nan -3 -0 -0 -0 -0 -0 -0 -0 -0 -0 -0 -0 -0 -0 -0 -0 -0 -0 -0 -0 -0 -0 -0 -0 -0 -0 -0 -0 -0 -0 -0 -0 -0 -1 -1 -1
nan nan nan nan nan nan nan nan nan nan nan nan nan nan nan nan -0 -0 nan nan nan nan nan nan nan nan -4 -0 -3 -3 -10 -15 -5 -5 -1 -1 nan nan nan nan nan -0 nan nan nan nan -4 -4 -4 -9 -12 -0 -0 -0 -0 -0 -0 -0 -0 -0 -0 -0 -0 -0 -0 -0 -0 -0 -0 -0 -0 -0 -0 -0 -0 -0 -0 -0 -0 -0 -0 -0 -1 -1 -1 -2
-0 -0 -1 -0 -0 -0 -0 -0 -0 -0 -0 -5 -8 -8 -4 -0 -0 -0 -2 -5 -5 -3 -1 -2 -2 -3 -4 -5 -5 -5 -15 -31 -14 -14 -3 -2 nan nan nan nan nan -1 -0 nan nan -3 -0 -6 -6 nan nan nan -0 -0 -0 -0 -0 -0 -0 -0 -0 -0 -0 -0 -0 -0 -0 -0 -0 -0 -0 -0 -0 -0 -0 -0 -0 -0 -0 -0 -0 -1 -1 nan nan nan
-0 -0 -0 -0 -0 -0 -0 -0 -0 -0 -0 -0 -0 -0 -3 -4 -2 -2 -2 -2 -2 -1 -2 -1 -1 -2 -3 -5 -5 -5 -8 -10 -20 -20 -15 -2 nan nan nan nan nan nan -0 -3 -3 -0 -0 -6 -6 nan nan nan nan nan -0 -0 -0 -0 -0 -0 -0 -0 -0 -0 -0 -0 -0 -0 -0 -0 -0 -0 -0 -0 -0 -0 -0 -0 -0 -1 -1 -1 nan nan nan nan
-0 -0 -0 -0 -0 -0 -0 -0 -0 -0 -0 -0 -0 -0 -0 -3 -3 -3 -2 -3 -3 -3 -2 -1 -1 -2 -2 -4 nan nan -8 nan nan nan nan nan nan nan nan nan nan nan -0 -1 -1 -2 -0 -2 -2 nan nan nan nan nan nan -0 -0 -0 -0 nan nan -0 -0 -0 -0 -0 -0 -0 -0 -0 -0 -0 -0 -0 -0 -0 nan nan -1 -1 -1 nan nan nan nan nan
-0 -0 -0 -0 -0 -0 -0 -0 -0 -0 -0 -0 -0 -0 -0 -4 -2 -2 -4 -5 -5 -4 -2 -1 -1 -1 -1 -4 nan nan nan -3 nan nan nan nan nan nan nan nan nan -2 -0 -1 -1 -7 -7 nan nan nan nan nan nan nan nan -0 -0 -0 nan nan nan -0 -0 -0 -0 -0 -0 -0 -0 -0 -0 -0 -0 -0 -0 nan nan nan nan nan nan nan nan nan nan nan
-0 -0 -0 -0 -0 -0 -0 -0 -0 -0 -0 -0 -0 -0 -0 -1 -2 -2 -5 -11 -11 nan nan -0 -0 -0 -2 nan nan nan nan nan nan nan nan nan -0 -0 -1 -0 -0 -0 -0 -0 -0 nan nan nan nan nan nan nan -2 -2 -7 nan nan nan nan nan nan nan -0 -0 -0 -0 -0 -0 -0 -0 -0 -0 -0 -0 -0 nan nan nan nan nan nan nan nan nan nan -3
nan nan nan -1 -1 -1 nan nan -0 -0 -0 -0 -0 -0 -0 nan nan nan nan nan nan nan nan -0 -0 -1 -1 nan nan nan nan nan nan nan -20 -0 -0 -0 -0 -2 -2 nan nan -0 -0 nan nan nan nan nan nan nan nan nan nan nan nan nan nan nan nan nan nan -0 -0 -0 -0 -0 -0 -0 -0 -0 -0 -0 -0 nan nan nan nan nan nan nan nan -2 -2 -2
nan nan nan nan nan nan nan nan nan nan nan nan nan nan -0 -0 -0 -0 nan nan nan nan nan nan nan -1 -0 -0 nan nan nan nan nan nan nan nan nan nan nan nan nan nan -1 -1 -1 -0 -0 nan nan nan nan nan nan nan nan nan nan nan nan nan nan nan -0 -0 -0 -0 -0 -0 -0 -0 -0 -0 -0 -0 -0 nan nan nan nan nan nan nan nan -2 -2 -2
-0 -2 nan nan nan nan nan nan nan nan nan nan nan nan nan nan -0 -0 -0 nan nan nan nan nan nan -1 -1 -1 -2 -2 nan nan -0 -0 -0 nan nan nan nan nan nan -2 -2 -1 -1 -1 -0 -1 -1 nan nan nan nan nan nan nan nan nan nan nan nan nan nan -0 -0 -0 -0 -1 nan nan -0 -0 -0 -0 -0 nan nan nan nan nan nan nan nan -3 -3 -2
nan nan nan nan nan nan nan nan nan nan nan nan nan nan nan nan nan nan -0 nan nan nan nan -4 -4 -2 -2 -2 -1 -1 nan nan -0 -0 -0 nan nan nan -2 nan nan -1 -2 -0 -0 -0 -0 -1 -1 -1 nan nan nan nan nan nan nan nan nan nan nan nan -1 -0 -0 -0 -0 -1 -72 -72 nan -2 -1 -1 -0 nan nan nan nan nan nan nan nan -5 -5 -3
nan nan nan nan nan nan nan nan nan nan nan nan nan nan nan nan nan nan nan nan nan nan nan nan nan nan nan nan nan nan nan nan -0 -0 -0 -2 nan nan nan -1 -1 -1 -1 -1 -1 -1 -1 -0 -0 -0 -0 nan nan nan nan nan nan nan nan nan nan nan -1 -0 -0 -0 -0 -1 -31 -31 nan nan nan nan nan nan nan nan nan nan nan nan nan nan nan nan
nan nan nan nan nan nan nan nan nan nan nan nan nan nan nan nan nan nan nan nan nan -0 -0 nan nan nan nan nan nan nan nan nan -0 -0 -0 -2 nan nan nan nan nan -2 -1 -0 -0 -1 -1 -1 -1 -0 -0 nan nan nan nan nan nan nan nan nan nan nan -2 -0 -0 -0 -0 -0 -1 -1 -40 nan nan nan nan nan nan nan nan nan nan nan nan nan nan nan
nan nan nan nan nan nan nan nan nan nan nan nan nan nan nan nan nan nan nan nan nan nan nan -0 -0 -0 -0 nan nan nan nan nan nan nan -1 -4 nan nan nan -1 -1 -0 -1 nan nan -0 -0 -0 -0 -0 -0 -0 nan nan nan nan nan nan nan nan nan nan nan -1 -1 -0 -0 -0 -2 -2 -6 nan nan nan nan nan nan nan nan nan nan nan nan nan nan nan
nan nan nan nan nan nan nan nan nan nan nan nan nan nan nan nan nan nan nan nan nan nan nan nan nan nan -0 -0 -2 -2 nan nan nan nan nan nan nan nan nan nan nan -0 -1 nan nan -1 nan nan nan nan nan nan nan nan nan nan nan nan nan nan nan nan nan nan nan -1 -0 -0 -2 -2 -6 -22 nan nan nan nan nan nan -3 -3 -3 nan nan nan nan nan
nan nan nan -2 -2 nan nan nan nan nan nan nan nan nan nan nan nan nan nan nan nan nan nan nan nan nan nan nan -0 -0 -0 -2 nan nan nan nan nan nan nan nan nan nan nan nan nan nan nan nan nan nan nan nan nan nan nan nan nan nan nan nan nan nan nan nan nan -0 -0 -0 -0 -0 -3 -7 -9 -9 -5 -5 -3 -3 -2 -2 -2 -4 nan nan nan nan
nan nan nan -0 -0 nan nan nan nan nan nan nan -0 -0 nan nan nan nan nan nan nan nan nan nan nan nan nan -0 -0 -0 -0 -2 -1 -1 nan nan nan nan nan nan nan nan nan nan nan nan nan nan nan nan -0 nan nan nan nan nan nan nan -2 nan nan nan nan nan nan -1 -0 -0 -0 -0 -1 -4 -5 -5 -5 -4 -3 -3 -3 -3 -3 -6 nan nan nan nan
nan nan nan nan nan nan nan nan nan nan nan nan nan nan nan nan nan nan nan nan nan nan nan nan nan nan nan nan nan nan nan nan -1 -1 nan nan nan nan nan nan nan nan nan nan nan nan nan nan nan nan nan nan -0 -0 -0 nan nan -1 -0 -0 -0 -3 -5 nan nan nan nan -0 -0 -0 -1 -4 -6 -6 -6 -5 -5 -5 -7 -6 -6 -6 nan nan nan -4
-0 nan nan nan nan nan nan nan nan nan nan nan nan nan nan nan nan nan nan nan nan nan nan nan nan nan nan nan nan nan nan nan nan nan nan nan nan nan nan nan nan nan nan nan nan nan -1 -1 -1 -1 nan -2 -1 -1 -1 -2 -2 -1 -0 -1 -1 -2 -2 nan nan nan nan -0 -0 -0 -1 -3 -4 -4 -6 -5 -6 -6 -11 -10 -10 -12 -7 -4 -4 -5
nan nan nan nan nan nan nan -0 -0 -0 nan nan nan nan nan nan nan nan nan nan nan nan nan nan nan nan nan nan nan nan nan nan nan nan nan nan nan nan nan nan nan nan nan nan nan nan -1 -0 -0 -1 -2 -2 -1 -1 -1 -2 -2 -3 -1 -1 -1 -0 nan nan nan nan -2 -0 -0 -0 -0 -3 -5 -5 -6 -8 -8 -8 -9 -13 -13 nan nan -5 -5 -5
nan nan nan nan nan nan nan nan nan nan nan nan nan nan nan nan -0 -0 -0 nan nan nan nan nan nan nan nan nan nan nan nan nan nan nan nan -1 nan nan nan nan nan nan nan nan nan nan nan -1 -1 -2 -2 -2 -1 -1 -1 -2 -2 -3 nan -3 -3 -0 -1 nan nan nan -1 -0 -0 -0 -1 -4 -3 -3 -5 -6 -10 -10 -5 -5 -5 -5 -12 -7 -7 -5
nan nan nan nan nan nan nan nan nan nan nan nan nan nan nan nan -0 -0 nan nan nan nan nan nan nan nan nan nan nan nan nan nan nan nan nan -1 -0 -0 -1 nan nan nan nan nan nan nan nan nan nan nan -2 -1 -1 -1 -1 -2 -2 nan -2 -2 -2 -1 -2 nan nan nan nan -0 -0 -0 -1 -3 -2 -2 -1 -2 -4 -4 -3 -3 -3 -3 -5 -6 -6 -5
nan nan nan nan nan nan nan nan nan nan nan nan nan nan nan nan nan nan nan nan nan nan nan nan nan nan nan nan nan nan nan nan nan nan nan nan nan nan -3 -1 -1 -1 nan nan nan nan nan nan nan nan -2 -1 -1 -1 -2 -2 -2 nan -2 -1 -1 -1 -3 -6 -6 nan nan -1 -0 -0 -0 -1 -0 -0 -1 -2 -3 -3 -3 -3 -3 -3 -3 -4 -4 -4
nan nan nan nan nan nan nan nan nan nan nan nan nan nan nan nan nan nan nan nan nan nan nan nan nan nan nan nan nan nan nan nan nan nan nan nan nan nan nan -5 -5 -1 -1 nan nan nan nan nan nan nan -2 -1 -2 -2 -3 -3 -3 -2 -2 -2 -2 -1 -2 nan nan nan nan nan -2 -2 -0 -0 -2 -2 -1 -2 -2 -2 -2 -3 -3 -6 -5 -6 -6 -8
nan nan nan nan nan nan nan nan nan nan nan nan nan nan nan nan nan nan nan nan nan nan -0 nan nan nan nan nan nan nan nan nan nan nan nan nan nan nan nan nan nan -3 -1 -0 -0 -1 -2 nan nan nan -2 -1 nan nan nan -3 -3 -3 -2 -2 -2 -1 -2 nan nan nan -5 nan -3 -3 -0 -0 -0 -0 -1 -1 -2 -2 -1 -2 -2 -6 -8 -9 -9 -7
nan nan nan nan nan nan nan nan nan nan nan nan nan nan nan -0 -0 -0 -1 nan nan nan nan nan nan nan nan nan nan nan -0 -0 nan nan nan nan nan nan nan nan nan nan nan -1 -1 -1 -1 -2 -2 -2 nan -2 nan nan nan -3 -3 -3 -3 -2 -2 -1 -3 nan nan nan -4 nan -3 -3 -0 -0 -2 -2 -1 -1 -2 -2 -2 -2 -2 -4 -9 -11 -11 -9
nan nan nan nan nan nan nan nan nan nan nan nan nan nan nan nan nan nan nan nan nan nan nan nan nan nan nan nan nan nan nan nan nan nan nan nan nan nan nan nan nan -2 nan nan nan nan nan -0 -0 -0 -0 -1 nan nan nan -3 -3 -3 -3 -2 -2 -2 -3 -3 -3 -5 -5 -4 nan nan -1 -0 -2 -2 -2 -2 -2 -2 -2 -2 -2 -4 -7 -12 -12 -13
nan nan nan nan nan nan nan nan nan nan nan nan nan nan nan nan nan nan nan nan nan nan nan nan nan nan nan nan nan nan -0 nan nan nan nan nan nan nan nan nan nan nan nan -1 -1 -0 -0 -0 -0 -0 -0 -0 -0 -0 nan nan nan -2 -1 -2 -2 -2 -2 -3 -3 -5 -4 -4 nan nan -1 -0 -1 -1 -2 -2 -3 -3 -2 -2 -2 -3 -5 -8 -8 -15
Wind_Speed
10 10 10 12 12 11 11 12 12 12 12 11 9 8 8 8 8 8 10 10 10 9 9 10 10 12 14 18 21 23 24 24 23 23 23 22 22 22 21 21 20 20 19 19 20 20 20 21 21 21 22 22 22 21 21 20 20 20 20 21 21 21 20 19 18 17 16 16 16 16 16 17 18 19 20 19 17 15 12 12 12 12 12 11 11 12
10 10 10 12 12 12 11 12 12 11 11 11 10 9 8 7 7 7 8 9 9 8 8 9 10 11 12 15 19 22 23 23 23 23 23 23 22 22 21 21 21 20 20 20 20 20 20 20 21 21 21 22 22 22 21 21 20 20 20 21 21 21 21 19 18 18 17 17 16 16 16 17 18 19 20 19 18 15 12 11 11 12 13 12 11 11
10 10 10 11 11 11 11 11 11 11 12 11 9 8 7 7 7 7 7 8 8 7 7 8 9 10 11 13 17 20 22 23 23 24 23 23 23 22 22 21 21 20 20 20 20 20 20 20 20 21 21 21 22 22 22 21 21 21 20 21 21 21 21 20 19 18 17 17 16 16 16 17 17 19 20 20 18 16 13 11 11 12 13 13 13 12
10 10 10 9 10 10 11 11 11 10 10 9 9 7 7 6 7 7 7 7 7 7 7 8 8 9 9 10 13 17 21 23 23 24 23 23 23 22 22 21 21 21 20 20 20 20 20 20 20 21 21 21 22 22 22 22 22 21 21 21 21 21 21 20 19 18 18 17 16 16 16 16 17 18 19 20 18 16 14 12 11 12 13 13 13 13
10 10 10 9 9 10 10 10 10 10 9 8 7 6 6 6 6 7 7 7 7 7 7 7 8 8 8 8 11 16 20 22 23 23 23 23 23 22 22 21 21 20 20 20 19 19 19 20 20 20 21 21 22 22 22 22 22 22 22 22 22 21 21 20 19 19 18 17 16 16 15 16 17 18 19 19 19 17 14 13 12 12 13 14 14 13
10 10 9 9 8 8 8 9 9 9 8 6 6 5 6 5 6 6 6 7 7 7 7 7 7 7 7 8 12 16 20 21 22 23 23 23 22 22 22 21 21 20 19 19 19 19 19 19 19 19 20 20 20 21 21 22 22 22 21 21 21 21 20 20 19 19 18 17 16 16 15 15 16 18 19 19 19 17 15 13 13 13 13 13 13 13
10 9 9 9 8 8 8 8 8 7 6 6 5 6 6 6 6 6 6 6 7 7 7 6 6 6 6 8 11 15 17 19 20 21 21 21 21 21 21 21 20 19 19 19 19 18 18 18 18 18 19 19 19 20 20 20 20 20 20 20 20 20 20 20 19 19 18 18 17 16 15 15 16 17 19 19 19 17 15 14 13 13 13 13 13 13
11 10 9 9 9 8 7 7 7 6 5 5 5 6 6 6 6 6 6 6 6 6 6 6 6 6 5 6 8 11 11 13 13 14 16 17 18 18 19 19 19 19 19 18 18 18 18 18 18 19 19 19 19 19 19 20 20 20 19 19 19 20 20 20 19 19 19 18 17 16 15 15 16 17 19 19 19 17 15 14 13 13 13 12 12 12
12 11 10 10 9 8 8 7 6 5 4 5 5 6 7 7 6 6 6 6 5 5 4 5 5 6 6 5 6 7 9 10 10 10 11 12 12 13 16 17 18 18 18 18 18 18 19 19 19 20 20 20 20 20 20 20 20 20 20 20 20 20 20 20 20 20 19 19 18 17 16 16 16 17 19 19 18 17 15 14 14 13 13 12 12 12
12 12 10 9 8 7 7 6 5 5 4 4 5 5 5 6 7 7 7 6 5 4 4 5 6 6 7 6 5 6 8 10 12 14 15 14 15 15 16 15 15 15 16 17 18 19 20 20 20 20 20 20 20 20 20 20 20 20 20 20 20 20 21 21 21 21 20 19 18 17 17 16 17 17 18 19 18 17 15 14 13 12 12 11 11 11
11 10 8 7 6 5 5 5 5 5 4 4 4 5 5 5 6 7 8 8 7 5 5 5 5 6 7 6 6 6 7 8 10 12 14 15 17 17 16 15 14 14 16 17 18 19 20 20 20 20 20 20 20 20 20 20 21 21 21 21 21 21 21 21 21 21 21 20 19 18 17 17 17 17 18 18 18 16 14 13 12 11 11 10 10 10
8 6 5 5 4 4 5 5 5 5 4 4 5 5 5 5 5 6 8 8 8 7 6 5 5 5 6 6 6 6 6 6 7 7 8 10 11 11 10 10 11 12 13 15 16 17 18 19 19 19 19 19 19 19 19 19 20 20 21 21 21 21 21 21 21 21 21 20 20 19 18 17 17 18 18 18 17 16 14 13 12 11 10 9 9 9
5 4 4 5 5 5 5 5 5 4 4 5 6 6 6 5 5 5 6 7 8 7 6 6 6 5 5 5 5 5 5 6 7 7 7 6 5 5 4 5 6 7 8 9 9 11 14 16 17 17 18 18 18 18 19 19 19 19 20 20 20 21 21 21 21 21 21 21 20 19 18 18 18 18 18 18 17 15 14 12 11 11 10 10 9 9
4 4 5 6 7 6 6 6 6 6 6 5 5 6 6 6 6 6 6 7 7 7 7 8 7 6 5 5 5 4 5 6 6 6 6 5 4 3 3 4 5 6 6 6 6 8 11 12 12 13 15 16 17 17 17 17 18 19 19 20 20 20 21 21 21 21 21 21 20 19 19 18 18 18 18 17 16 15 14 12 12 11 10 10 9 9
6 6 8 8 8 7 6 6 6 6 5 5 5 5 6 6 6 7 7 7 7 7 7 8 8 7 5 4 4 4 5 5 6 5 5 4 4 3 3 4 5 6 5 6 7 8 9 9 8 8 10 13 14 15 16 16 17 18 18 19 19 20 20 20 21 21 21 20 20 19 19 18 18 18 17 17 16 15 14 13 12 11 11 10 10 9
7 8 8 9 8 7 5 5 5 5 5 5 5 5 6 6 7 6 7 7 7 6 7 7 8 7 5 4 3 3 4 5 5 5 5 5 4 3 4 4 5 6 6 6 7 7 6 6 7 7 8 12 15 17 18 18 18 18 18 19 19 19 19 20 20 20 20 20 20 19 19 18 18 17 17 16 16 15 14 13 12 11 11 11 10 9
7 7 7 7 7 6 5 5 5 5 5 5 5 5 6 6 6 6 7 7 6 6 5 6 7 6 5 3 3 3 3 4 4 5 7 6 5 4 3 4 5 7 7 7 7 7 6 6 6 7 8 12 15 18 18 18 18 18 18 18 18 19 19 19 19 19 19 19 19 19 19 18 17 16 16 16 15 15 14 13 13 12 11 11 10 9
5 5 5 6 6 7 7 6 6 6 6 6 6 6 6 6 6 7 7 7 6 6 6 6 6 5 5 4 3 2 2 4 5 6 7 7 6 4 3 4 5 7 7 7 7 7 6 6 6 7 9 14 17 18 18 18 18 18 18 18 18 18 18 19 19 19 19 19 19 19 18 17 17 16 16 15 15 15 14 14 13 12 11 11 10 9
6 5 6 7 7 7 7 7 6 6 6 6 7 7 7 7 7 7 7 7 7 7 7 7 6 6 6 5 4 3 3 4 5 7 7 8 7 5 3 4 6 7 8 7 7 6 6 6 8 11 14 16 18 18 18 18 18 18 18 18 18 18 18 19 19 19 19 19 19 19 18 17 17 16 15 15 15 15 14 14 13 13 12 11 10 9
7 6 6 6 7 7 7 6 6 6 7 7 7 7 7 7 8 7 7 7 7 7 7 7 7 7 6 7 6 5 4 4 5 6 7 8 8 6 4 4 6 8 8 7 6 6 6 6 7 10 14 16 17 18 19 19 19 19 19 19 19 19 19 19 19 19 19 19 19 19 18 17 17 16 16 15 15 15 15 14 13 13 12 11 10 9
8 7 6 5 5 6 8 8 8 8 9 8 7 7 7 7 7 7 7 7 7 7 7 7 8 7 6 7 6 5 3 4 5 6 6 7 7 6 3 4 6 7 8 7 6 6 6 6 6 7 10 14 17 19 19 20 20 20 20 20 20 20 19 19 19 19 20 19 19 19 18 18 17 16 16 15 15 15 14 14 14 13 12 11 10 10
8 7 6 6 6 7 9 9 9 9 8 8 7 7 7 7 7 8 7 7 7 8 8 8 7 7 7 7 7 5 4 4 5 6 5 6 7 6 3 4 5 7 8 7 6 5 5 5 6 7 11 15 18 19 20 20 20 20 20 20 20 20 20 20 20 20 20 20 20 19 19 18 17 17 16 15 15 14 14 14 14 13 13 12 11 10
8 8 8 7 7 7 7 7 6 7 8 9 9 9 7 8 8 8 8 8 8 8 8 8 7 7 7 7 7 6 5 5 6 5 5 7 7 5 3 4 5 7 8 7 6 5 5 6 7 8 11 16 18 19 20 20 21 21 21 21 21 21 21 21 20 20 20 20 20 20 19 18 18 17 16 16 15 14 14 14 14 13 13 12 11 10
7 7 7 6 6 7 7 7 8 8 9 10 9 8 7 8 8 9 8 8 8 7 7 7 8 8 8 8 7 7 5 5 5 5 4 6 6 5 3 4 6 7 8 7 6 6 7 7 7 7 9 13 17 19 20 21 21 22 22 22 22 21 21 21 21 21 21 21 21 20 20 19 18 18 17 16 15 15 14 14 14 14 13 12 11 10
8 9 9 9 10 11 11 11 11 11 10 7 5 4 5 7 8 8 7 7 7 7 7 7 8 8 7 7 6 5 4 4 4 4 4 4 5 6 4 4 6 7 8 7 6 7 8 8 7 7 7 10 14 18 20 21 21 22 22 22 22 22 21 21 21 21 21 21 21 21 21 20 19 18 17 16 16 15 14 14 14 13 13 12 11 10
13 14 14 15 17 19 20 20 20 19 18 13 9 7 5 5 6 6 6 6 6 6 6 7 8 8 6 5 5 5 3 3 3 3 3 4 5 5 5 4 5 7 8 7 7 7 8 8 7 6 6 8 12 15 18 20 20 21 21 21 21 21 21 21 21 21 21 22 22 22 22 21 20 19 18 17 16 15 15 14 14 13 12 10 10 9
20 20 21 22 22 22 23 23 23 23 23 20 17 13 9 7 6 6 7 6 6 6 7 7 8 8 7 6 5 4 4 3 2 2 2 3 5 5 5 4 5 6 8 7 7 7 8 8 8 7 6 7 8 11 16 18 19 20 20 19 19 19 20 20 21 21 22 22 22 22 22 22 21 20 19 18 16 15 14 14 13 12 11 9 8 7
19 20 20 20 21 21 21 21 20 20 20 20 20 18 13 8 7 7 7 6 5 6 7 7 8 7 7 6 6 5 4 4 3 2 2 3 4 5 5 4 5 6 6 6 6 7 8 8 8 7 7 7 7 8 12 14 16 16 16 16 16 16 17 19 20 21 22 22 22 23 23 22 22 21 20 18 17 15 14 14 12 11 9 7 5 5
16 17 18 19 19 19 19 18 18 18 18 19 19 17 12 8 6 6 6 5 4 5 6 7 7 7 7 7 6 6 6 5 4 3 3 4 5 5 5 4 4 4 4 5 5 6 6 6 6 5 6 7 7 6 7 9 10 10 11 13 14 15 16 18 19 20 21 22 22 23 23 23 22 21 20 19 17 16 14 13 12 10 7 6 5 4
11 13 13 14 15 15 14 13 13 14 16 17 17 16 11 7 5 5 4 4 4 5 7 7 8 7 7 7 7 6 5 4 3 3 3 4 4 4 4 3 3 3 3 4 5 5 5 4 4 4 4 5 5 4 4 5 6 7 8 10 12 13 15 17 18 19 21 22 22 23 23 23 23 22 20 19 17 16 15 13 11 8 5 5 5 5
9 9 9 9 9 9 8 8 9 10 12 14 14 13 10 7 5 4 4 4 5 6 7 7 8 7 7 6 6 5 4 2 2 2 2 2 3 3 3 3 3 3 3 3 4 4 5 4 3 2 2 3 3 3 4 4 5 5 5 7 8 10 13 15 16 17 19 20 22 23 23 23 23 22 20 19 18 17 15 14 11 8 5 5 5 5
8 8 7 7 6 6 6 6 7 7 7 8 8 8 8 7 6 5 5 5 5 6 7 7 7 7 7 7 7 6 4 2 2 2 2 2 3 3 3 4 4 4 3 3 3 4 5 4 3 3 3 3 4 4 5 5 5 4 5 6 6 8 11 13 14 14 15 17 20 22 23 23 23 22 21 19 18 17 16 15 13 9 6 6 6 6
8 7 7 7 6 6 6 5 5 5 6 6 6 6 7 7 7 7 6 5 5 6 6 7 7 7 7 8 8 7 6 4 4 5 5 3 3 3 3 4 4 4 4 4 4 5 5 5 5 5 5 5 4 4 4 5 4 4 5 5 6 7 9 10 10 11 10 12 14 17 21 22 23 22 21 20 19 18 17 17 15 12 8 7 7 6
8 8 8 7 6 6 6 5 5 5 5 5 6 6 6 6 6 7 7 6 6 6 6 7 7 7 7 7 8 8 7 5 6 7 7 5 4 4 4 5 5 4 4 4 4 4 5 6 6 6 6 5 5 4 4 4 4 4 4 4 5 6 7 8 8 8 8 8 9 10 13 16 18 20 19 19 19 18 18 17 17 15 13 10 8 7
8 8 8 7 6 6 6 6 5 5 5 5 6 6 6 5 6 6 6 6 6 6 6 7 7 7 7 7 8 8 7 6 6 7 8 6 5 4 4 5 5 4 4 4 4 4 4 6 7 7 7 6 6 5 4 3 3 4 3 4 5 6 6 7 8 8 8 6 7 7 8 9 11 13 15 16 17 18 18 18 18 17 16 14 11 8
7 7 7 7 6 6 6 6 6 6 6 5 5 5 5 5 5 6 6 6 7 7 7 7 7 8 8 8 8 8 8 6 7 8 8 7 6 5 5 5 5 4 4 5 5 4 4 6 7 8 8 7 7 5 4 3 3 3 3 4 4 6 7 7 8 8 7 6 6 7 7 7 8 9 10 14 16 17 18 18 18 18 18 17 15 12
7 7 7 7 6 6 6 6 6 6 6 5 5 5 5 6 6 6 6 6 7 7 8 9 9 9 10 9 9 9 9 8 8 8 9 8 7 6 6 5 5 6 5 6 6 5 5 6 7 7 7 7 6 5 4 3 3 3 3 4 4 5 7 8 8 9 8 7 7 7 7 7 8 8 9 12 14 15 16 17 18 18 19 18 17 15
8 7 7 6 6 6 6 6 6 6 6 6 6 6 6 6 6 7 6 7 7 8 8 8 8 10 13 13 13 12 11 11 10 11 11 9 8 8 7 7 7 7 6 6 6 6 6 7 7 7 6 6 7 7 6 5 4 4 4 4 5 6 7 7 8 9 9 8 7 7 7 8 8 7 8 9 10 10 11 12 13 15 17 17 17 17
8 7 7 7 6 6 6 6 6 6 6 6 6 7 7 7 7 7 7 7 7 8 8 8 8 9 11 13 15 15 15 14 14 13 13 11 10 9 9 8 8 8 7 7 7 7 7 7 7 7 6 6 7 7 6 5 5 4 5 5 5 6 6 7 7 8 9 7 7 7 8 8 8 7 7 8 8 9 9 9 10 11 12 11 12 14
8 7 7 7 7 7 6 7 7 6 6 7 7 8 7 7 7 7 6 7 7 8 8 9 9 9 9 11 12 14 14 13 13 13 12 11 10 10 9 9 8 8 7 7 7 7 8 8 8 8 8 7 7 7 6 5 5 5 6 5 5 5 5 5 6 8 8 7 6 7 7 8 8 8 8 8 9 9 9 8 8 9 10 9 8 9
8 8 7 7 7 7 7 7 7 7 7 7 7 6 6 6 6 6 6 6 6 7 7 7 8 8 8 9 10 11 12 12 13 13 12 12 12 11 9 9 8 8 7 7 8 8 8 9 9 9 9 8 9 9 9 8 7 7 8 7 6 6 6 7 7 8 8 8 7 7 7 7 8 8 9 9 9 9 8 8 8 8 8 8 8 8
9 9 8 7 7 7 7 7 7 7 7 7 6 6 6 6 6 6 6 6 6 6 5 5 6 6 7 7 8 8 9 10 11 12 13 13 13 13 11 10 9 8 8 8 8 9 9 9 9 9 9 8 8 8 9 9 8 8 8 7 7 7 8 8 7 6 7 8 8 7 7 7 8 9 9 9 9 8 8 8 9 9 9 9 9 9
8 8 8 8 7 7 8 8 8 7 7 6 6 6 6 5 6 6 6 6 6 6 6 6 6 6 6 7 6 6 7 8 10 11 12 13 13 13 12 11 10 9 8 8 8 9 9 10 10 10 9 8 8 9 10 9 9 8 7 7 6 6 5 4 4 4 5 6 7 7 6 6 7 7 8 8 8 8 8 8 9 10 10 10 10 10
8 8 8 7 7 7 7 7 6 6 6 6 6 6 6 6 6 7 7 6 6 7 6 6 6 6 6 7 7 6 6 6 7 9 10 12 13 13 12 12 12 11 10 9 8 8 8 9 10 10 9 8 8 9 10 10 9 8 7 7 7 8 7 5 4 4 5 6 6 6 6 6 6 7 7 7 7 8 8 8 9 9 9 9 9 9
7 7 7 7 7 7 7 7 7 6 6 6 7 7 6 7 7 7 6 6 7 7 6 6 5 5 6 6 6 6 6 5 5 6 7 10 12 13 12 11 10 10 10 10 9 9 8 8 9 8 8 8 9 10 10 10 9 9 8 8 8 9 9 7 6 6 6 7 7 6 6 6 7 7 8 9 9 9 9 9 9 9 9 9 9 10
7 7 8 7 7 8 8 8 7 7 7 7 7 7 7 7 6 6 7 7 7 7 6 6 5 5 6 6 6 6 6 6 6 5 5 5 6 8 8 9 9 8 8 9 10 10 10 9 9 8 7 8 9 10 11 10 10 9 8 8 8 8 8 8 8 8 7 8 8 8 7 7 8 9 9 10 10 10 9 9 10 10 10 10 10 10
7 8 8 8 8 8 8 7 7 7 7 7 7 7 7 7 6 6 7 7 6 6 7 6 6 6 7 7 7 6 7 7 7 6 5 5 5 5 5 6 8 9 8 9 9 10 11 11 10 9 8 8 9 10 11 10 10 9 9 8 8 7 8 8 8 8 7 8 8 8 9 8 8 9 9 9 9 9 9 9 9 10 10 10 10 11
7 8 8 8 8 8 8 8 8 7 7 7 7 7 7 7 8 8 7 7 6 6 7 6 6 6 7 7 7 7 7 8 7 7 6 6 5 5 5 5 6 7 8 9 10 11 11 12 12 12 11 10 10 11 11 10 10 9 9 8 8 8 9 9 8 7 7 8 10 10 10 9 8 9 9 8 8 8 9 9 10 10 10 10 11 11
7 7 7 8 8 8 8 8 8 8 8 8 7 7 7 8 9 9 7 7 6 6 6 6 7 7 7 7 7 7 8 8 7 7 6 6 5 5 5 5 5 6 7 8 9 10 11 12 14 15 14 13 12 12 11 10 9 9 8 8 8 8 9 8 8 7 8 9 11 12 12 10 8 8 8 8 8 9 9 10 10 10 10 11 11 12
7 7 7 7 7 8 8 8 8 8 8 8 8 8 7 7 7 7 7 7 6 6 6 6 7 7 7 7 7 7 7 7 6 6 6 5 5 5 5 5 5 5 5 6 6 7 8 8 11 14 17 18 16 14 11 10 9 9 8 9 8 8 8 8 8 8 8 9 10 11 12 10 9 8 8 8 9 9 10 10 10 10 10 11 12 13
7 7 7 7 7 8 8 8 8 8 9 9 8 8 8 7 7 7 6 6 6 6 6 6 7 7 8 8 8 8 8 7 7 7 7 6 5 6 6 6 6 5 5 5 5 5 4 4 6 9 14 20 22 20 13 11 10 9 9 9 8 8 8 8 8 8 9 9 9 9 10 10 9 9 9 8 8 8 9 10 10 11 11 12 12 13
Wind_Direction
281 284 286 285 285 285 284 283 283 283 284 284 284 285 285 287 287 287 288 290 290 289 290 291 293 296 297 300 301 302 302 303 303 304 304 304 304 303 302 300 297 295 293 291 289 287 286 285 285 284 283 282 281 279 278 278 278 280 282 286 288 289 289 287 283 280 277 277 280 283 289 294 298 301 303 302 300 297 294 299 302 302 297 283 265 247
281 283 283 283 282 282 282 281 280 279 280 282 284 285 287 288 288 287 287 286 285 284 286 289 292 295 295 297 299 300 301 302 303 303 303 302 301 300 299 297 295 294 292 290 288 286 284 283 282 281 281 280 279 278 277 276 277 278 280 282 284 285 285 284 282 279 276 276 278 282 287 292 296 299 302 303 301 300 298 304 309 312 312 301 285 264
283 284 283 282 282 281 281 282 279 277 277 279 281 283 286 287 288 288 289 288 286 284 283 285 289 292 293 294 296 298 300 301 301 301 301 300 299 299 298 297 296 294 292 289 287 284 282 281 279 278 277 276 275 275 274 274 274 274 275 276 278 279 280 280 279 277 275 274 276 279 283 288 293 297 300 301 301 300 298 302 306 308 308 303 294 279
282 282 283 283 280 278 277 278 279 278 277 278 280 282 282 283 284 285 286 287 287 285 282 282 284 287 289 290 293 296 297 298 299 299 299 298 298 298 298 297 295 293 290 287 284 281 279 277 275 274 273 272 271 270 270 269 269 269 269 270 272 273 274 275 274 274 272 272 272 275 279 284 289 293 297 299 299 298 296 297 299 301 302 300 295 286
277 278 280 280 279 276 274 275 277 278 279 280 280 280 278 278 281 284 286 286 286 285 284 283 283 284 286 288 291 294 295 296 297 298 298 298 299 298 298 296 294 291 287 284 281 278 275 273 271 270 269 268 267 266 265 264 264 264 264 265 267 269 271 272 272 271 270 269 269 271 274 280 285 290 294 296 296 294 291 290 292 295 297 299 297 291
274 274 275 276 276 276 277 277 278 279 282 282 280 278 277 277 280 284 286 287 286 286 285 284 282 281 282 285 289 292 294 296 297 297 298 298 298 298 297 295 292 289 285 282 278 276 274 273 272 272 273 271 270 268 266 264 262 262 262 264 266 269 270 270 270 270 269 267 267 268 271 276 282 286 291 293 293 291 287 285 285 288 292 296 298 295
273 272 272 272 272 273 275 275 277 279 283 285 284 283 281 281 282 282 283 284 285 285 285 284 281 280 280 284 288 291 294 295 296 296 297 297 296 296 295 293 290 287 283 280 278 278 280 282 283 284 283 282 279 276 274 270 267 266 265 266 268 270 271 271 270 269 268 267 266 266 268 272 277 282 286 289 289 287 283 280 279 282 287 293 297 297
272 271 268 268 270 271 273 274 276 278 281 284 287 289 289 288 286 285 283 281 279 279 282 284 284 283 282 283 286 288 290 292 292 293 294 294 293 293 292 290 288 286 283 283 285 288 292 294 294 292 290 287 284 281 279 275 273 271 270 269 270 270 270 271 270 270 268 266 265 264 264 268 273 277 282 285 285 283 278 273 273 276 281 289 296 299
267 268 267 267 269 273 277 277 276 274 273 278 282 287 291 293 292 290 287 282 278 275 278 285 287 288 286 283 281 283 285 286 287 288 289 289 289 288 287 285 285 286 288 292 296 299 301 299 296 292 289 285 282 280 278 275 273 272 270 269 269 269 269 270 270 269 268 266 264 262 261 264 268 273 278 281 281 279 273 269 268 272 277 286 294 299
260 262 265 267 268 271 276 279 279 275 267 271 274 279 284 289 292 293 291 286 282 278 278 283 287 289 290 287 283 282 285 286 287 287 288 287 287 286 284 284 286 291 298 300 302 302 301 298 294 291 287 283 280 277 275 273 271 269 268 267 267 267 267 268 268 268 267 265 262 260 259 261 265 270 275 279 279 276 271 266 265 268 273 282 291 298
258 260 264 268 269 269 269 274 277 278 273 275 275 274 273 278 284 289 290 289 288 286 282 280 283 286 290 291 288 286 286 285 286 287 287 286 285 285 286 288 293 298 302 301 301 299 297 294 291 288 285 282 279 276 273 271 269 267 266 265 264 264 265 265 266 266 265 263 261 259 258 259 262 267 272 276 276 274 269 264 262 263 267 276 285 294
260 264 269 273 273 272 270 272 275 277 278 280 281 280 278 274 276 281 286 288 289 289 288 285 282 281 284 288 289 288 285 282 281 282 281 280 280 282 286 291 296 298 299 297 295 293 291 289 287 285 282 280 277 275 272 270 268 266 264 263 262 262 262 263 263 263 263 262 260 258 257 257 259 263 269 273 274 272 267 261 258 258 261 269 278 288
265 269 271 271 272 274 276 278 280 280 278 277 279 281 282 281 279 278 279 282 284 287 290 289 285 281 278 278 280 281 280 278 278 277 277 275 275 278 285 289 290 289 289 288 286 284 284 283 282 281 279 278 276 274 272 270 267 265 263 262 261 260 260 260 260 261 260 260 258 257 256 255 257 260 264 269 270 269 265 260 256 255 257 263 271 281
272 272 273 274 276 277 279 280 280 278 276 274 275 277 279 282 281 279 277 278 280 284 288 288 286 284 281 275 270 268 271 274 275 275 275 273 271 272 279 281 280 279 278 276 275 273 274 276 277 277 277 276 275 274 273 271 268 266 264 261 260 258 258 258 258 258 258 257 256 255 254 254 254 256 260 264 266 265 262 257 254 253 254 259 266 275
281 282 282 281 281 280 279 277 275 273 272 272 273 275 278 279 278 278 278 280 283 286 287 286 284 282 279 271 262 257 261 267 272 276 277 274 270 266 269 275 277 276 274 273 272 271 270 270 270 270 271 271 270 270 269 268 266 264 263 261 259 257 257 257 257 257 256 255 254 253 252 252 252 253 256 260 262 261 258 254 251 250 251 256 262 270
285 283 281 281 280 279 277 275 274 274 275 275 276 276 277 277 277 277 278 281 284 285 285 284 284 282 277 265 252 247 256 267 274 280 283 280 275 267 258 269 275 277 275 272 271 270 268 265 262 262 264 266 266 266 266 265 263 261 260 258 257 255 255 255 255 255 254 253 252 251 250 250 250 251 253 256 258 257 255 251 248 247 248 252 258 266
279 278 277 279 281 281 281 280 278 279 280 279 277 274 273 273 274 275 275 276 278 278 277 279 282 285 285 276 258 243 248 268 278 283 284 283 280 273 257 266 274 278 277 273 271 269 268 265 262 261 262 265 265 265 264 262 261 259 258 256 255 255 254 255 255 255 255 253 252 250 249 249 249 250 252 254 254 253 251 247 245 243 244 248 253 261
273 275 280 283 284 284 284 282 281 279 279 277 275 272 268 267 267 267 268 269 269 270 270 271 273 277 283 284 275 256 249 270 280 283 284 282 281 278 267 267 271 274 275 271 268 266 264 263 261 261 263 264 265 265 264 262 261 260 259 258 257 257 256 257 257 257 256 255 253 251 250 249 249 250 251 253 252 251 247 244 242 240 240 242 248 255
278 278 279 280 280 280 280 279 278 277 275 272 271 270 267 264 262 261 261 261 262 263 265 267 268 269 273 275 275 271 262 269 276 280 283 283 283 282 276 272 272 273 273 270 268 265 263 261 261 262 264 266 267 267 267 266 265 265 264 263 262 261 260 259 259 258 258 256 255 253 251 250 249 250 251 252 251 249 245 242 239 237 237 239 243 249
278 273 271 274 276 277 276 273 270 268 267 266 265 265 263 262 260 260 260 259 259 260 262 265 267 267 269 272 272 271 266 269 275 279 281 282 282 282 278 273 273 274 273 271 268 267 265 263 264 266 269 270 271 271 271 270 269 269 268 266 265 264 262 261 260 259 258 257 255 253 251 249 249 249 250 251 250 248 245 241 238 236 235 236 239 244
277 273 267 268 270 271 271 268 266 265 266 266 264 261 259 259 259 259 259 260 261 261 261 261 262 263 266 269 270 271 271 277 279 281 281 280 279 278 275 270 270 272 274 273 271 269 268 268 268 269 270 272 272 272 272 271 270 269 268 267 265 264 262 261 259 258 258 257 255 253 251 249 248 247 248 249 249 247 244 241 237 235 234 235 237 240
276 273 268 261 257 259 265 270 272 273 273 270 264 260 258 259 261 263 263 262 262 262 262 262 263 265 268 271 274 275 274 269 270 272 277 277 276 275 274 274 275 277 278 278 277 275 271 270 269 268 269 270 270 270 270 270 269 268 267 266 265 264 262 260 259 258 257 256 255 253 251 249 247 246 246 247 247 246 244 241 237 235 233 234 235 238
262 262 262 259 257 259 268 274 277 275 271 264 259 257 257 259 261 264 265 263 263 264 265 266 268 269 269 270 271 269 260 250 249 255 266 273 276 279 280 284 284 281 278 278 280 281 278 274 272 270 270 270 270 270 270 270 269 268 267 266 265 263 262 260 259 257 256 256 254 253 251 249 246 245 244 244 245 244 243 240 237 235 234 234 235 237
265 271 276 274 272 270 272 273 269 263 257 252 250 249 249 250 252 254 257 257 258 260 263 265 266 265 262 261 261 258 248 236 235 242 257 270 276 281 287 287 284 281 278 280 284 286 284 277 271 268 267 268 269 270 270 269 269 268 267 265 264 263 261 259 258 256 255 254 253 252 250 248 246 244 242 242 242 242 241 239 237 235 234 234 235 237
280 280 279 277 273 270 269 267 267 267 269 266 260 252 247 246 246 247 248 249 250 253 256 259 261 262 263 263 263 261 252 236 233 240 257 269 276 279 283 284 283 283 282 284 285 284 280 276 271 267 265 267 268 269 269 269 268 267 266 265 263 261 260 258 256 254 253 252 251 250 248 246 244 242 240 239 238 238 238 237 235 233 233 233 235 238
284 283 283 285 286 288 290 292 294 296 299 300 299 295 283 273 267 264 260 257 258 260 263 265 267 269 273 274 273 271 268 250 240 241 256 272 280 281 281 280 281 282 283 284 282 279 276 276 274 271 267 267 267 268 268 268 267 266 265 264 262 261 259 257 255 253 251 250 248 247 246 244 242 240 237 236 235 234 234 233 232 231 230 232 234 238
294 296 298 300 301 302 303 303 303 303 302 301 300 298 297 296 291 285 278 276 275 275 275 274 275 277 278 276 274 274 276 269 259 252 259 275 279 280 278 279 278 278 280 280 279 278 280 280 279 276 271 267 266 266 267 266 266 266 265 266 264 262 260 257 254 252 249 248 246 244 243 241 240 238 235 233 232 230 230 230 228 227 227 228 232 239
302 304 306 306 305 304 303 302 302 302 302 301 299 297 295 293 287 281 277 279 280 279 274 273 275 279 280 279 279 279 280 276 270 264 262 268 269 271 273 274 272 272 277 281 284 285 283 278 275 272 268 265 263 263 264 267 268 270 274 276 275 272 267 261 256 251 248 245 243 242 240 239 237 235 233 230 228 227 226 225 224 223 222 223 228 237
304 304 303 302 301 300 301 302 303 302 301 298 295 292 289 284 277 275 277 287 288 283 275 274 275 278 281 284 284 282 276 269 260 249 242 251 257 262 267 267 268 273 287 296 296 290 279 267 261 258 259 259 259 261 267 275 282 289 299 294 291 285 276 267 260 253 247 244 241 239 237 235 234 232 230 227 225 222 221 219 218 217 216 219 225 234
301 299 297 295 295 295 296 296 295 294 293 292 291 290 289 286 283 284 292 297 289 280 274 273 273 274 278 282 283 279 270 260 242 224 221 240 252 261 269 274 285 301 314 310 304 296 285 268 252 243 247 257 264 273 286 295 302 304 305 297 291 285 278 271 263 256 248 242 238 235 233 232 231 229 227 224 222 219 216 213 210 208 208 215 223 230
297 295 291 289 287 287 286 284 283 284 286 288 290 291 290 286 281 277 276 273 268 266 266 267 268 268 269 273 274 273 269 255 229 212 212 246 262 274 284 289 293 297 300 297 298 299 299 290 271 247 251 271 281 286 288 286 284 283 282 285 284 281 277 273 267 259 249 241 236 232 230 229 228 226 224 221 219 215 212 208 203 200 204 213 221 226
297 294 291 288 285 282 280 279 278 278 279 281 281 280 277 274 269 263 257 251 250 251 256 259 261 262 261 260 261 264 267 265 262 263 272 272 274 277 279 279 279 278 273 265 269 280 291 293 292 288 288 290 288 283 277 272 270 271 273 276 278 278 277 275 269 261 251 240 233 229 227 226 225 224 222 219 216 213 209 205 200 197 200 211 219 224
300 297 295 292 288 284 280 278 276 274 273 271 269 267 266 265 263 259 254 246 242 242 246 251 255 257 257 256 257 259 263 264 267 269 270 269 269 269 267 267 268 269 266 256 254 257 268 279 289 295 296 290 285 279 275 271 267 264 265 269 274 277 279 277 272 263 251 237 229 225 224 224 223 221 220 217 214 211 207 204 200 197 197 207 215 219
301 299 297 294 290 286 282 279 277 275 273 270 267 265 261 258 257 256 253 247 242 239 240 245 250 254 256 257 258 259 261 259 260 260 260 258 260 264 265 262 261 262 264 258 254 254 259 269 280 289 294 291 286 279 274 270 266 261 256 261 268 275 279 278 273 265 251 231 220 217 218 219 220 219 218 216 213 210 207 204 201 200 200 205 209 211
301 301 299 297 294 291 288 286 284 282 280 277 274 270 266 261 258 255 252 250 246 242 240 242 245 248 252 256 259 262 262 260 258 257 256 253 255 260 264 258 256 257 259 261 259 259 264 269 274 281 289 292 290 284 274 265 260 258 256 260 268 274 276 274 271 266 254 231 214 207 206 208 211 213 215 213 211 209 207 204 203 203 204 205 206 208
304 303 302 300 298 296 295 295 294 293 291 287 282 277 272 267 261 256 253 250 248 246 245 243 243 243 245 250 255 259 262 262 260 258 256 253 254 258 262 259 256 255 258 261 261 263 267 272 274 277 281 285 287 288 284 273 266 266 269 271 275 276 276 273 270 266 259 237 216 204 199 199 200 203 207 207 207 207 206 205 205 205 206 207 208 210
306 305 304 302 301 300 300 300 300 298 296 292 287 282 277 272 266 261 256 252 249 249 249 248 246 245 244 245 249 253 258 259 258 254 252 251 252 253 258 259 256 254 253 258 261 264 268 272 275 275 274 274 277 283 289 290 287 282 279 280 280 280 280 279 277 273 267 247 226 208 195 194 195 196 198 202 203 204 205 206 206 206 207 208 210 212
309 307 306 305 305 305 305 305 303 301 299 296 293 288 284 278 272 267 263 257 252 250 250 249 249 249 248 249 250 251 254 254 252 249 245 244 244 246 251 256 254 250 247 251 255 260 263 268 271 272 272 269 269 273 281 287 289 287 285 284 281 277 274 270 268 267 264 252 234 213 197 192 191 191 192 194 195 197 201 204 205 206 207 208 210 213
311 309 309 310 311 311 310 307 304 303 301 298 294 291 288 283 278 273 268 263 259 254 252 251 250 250 249 250 251 252 253 252 250 247 242 239 237 239 244 249 250 248 244 244 246 249 252 256 260 264 269 272 273 273 275 277 279 284 291 289 281 271 261 260 261 263 263 254 237 218 201 193 189 189 189 190 191 193 197 198 199 199 200 203 209 214
313 312 312 313 314 313 310 307 304 302 300 297 294 293 291 288 285 280 274 270 266 262 257 253 252 251 250 249 250 250 251 251 250 247 243 237 233 233 237 242 245 246 243 240 239 239 242 247 251 256 259 266 272 275 277 273 272 277 286 287 282 275 270 276 281 284 285 275 253 228 205 194 190 189 190 190 192 194 195 194 192 191 190 192 197 204
316 316 315 314 313 311 307 305 303 301 299 297 296 295 293 291 289 286 282 278 274 270 266 260 257 255 253 249 248 247 247 249 249 247 244 239 235 233 233 236 239 240 239 238 236 235 235 241 247 251 253 258 265 270 272 270 269 270 272 272 274 278 282 277 274 273 278 277 264 243 215 197 190 189 191 191 193 195 193 191 188 187 185 190 193 195
317 317 316 314 312 310 308 306 304 303 303 301 299 297 294 293 292 290 289 288 284 281 278 273 270 267 264 259 254 249 246 246 245 245 244 241 237 234 233 233 233 234 235 236 236 235 234 237 242 246 248 251 257 263 267 267 265 262 259 263 272 280 281 269 257 248 252 259 259 248 223 203 192 190 190 191 192 192 190 191 190 188 186 190 194 198
316 315 314 312 310 308 307 307 308 309 310 307 303 299 297 296 295 295 294 293 291 290 288 284 281 279 277 275 270 263 254 248 245 244 243 240 238 235 233 231 231 230 230 234 236 238 236 236 239 241 243 245 249 255 262 265 264 259 254 254 259 267 272 268 260 251 249 253 252 244 226 210 197 190 188 189 190 190 190 192 194 193 191 191 193 198
312 312 312 312 311 310 311 313 314 314 313 309 306 303 302 301 300 299 298 296 294 293 293 291 288 284 281 280 278 276 271 260 249 244 242 241 238 235 234 231 229 228 226 229 234 238 239 238 238 239 239 240 243 248 254 258 259 257 251 246 244 245 249 265 282 288 283 274 264 251 229 215 203 194 187 188 191 193 193 194 195 196 194 192 193 197
311 313 315 317 317 318 318 317 316 315 313 310 307 306 305 305 304 303 301 298 297 297 296 296 294 290 286 284 284 285 284 280 270 258 250 247 245 243 239 235 231 227 225 227 230 233 237 239 240 239 236 235 238 242 247 251 254 254 251 244 241 242 246 255 264 270 273 274 271 262 241 221 208 199 191 190 192 194 195 193 192 192 193 191 193 196
316 318 320 321 322 321 320 318 317 315 313 311 309 308 307 307 306 303 301 300 299 299 298 297 294 291 290 291 292 293 293 291 287 282 273 261 252 247 244 241 238 235 231 230 230 232 234 237 239 240 238 237 238 239 241 243 247 250 250 244 242 242 244 246 245 245 246 254 260 261 252 230 214 204 196 191 192 194 195 192 191 191 190 190 192 195
322 322 322 323 323 323 321 321 319 317 315 312 311 310 310 309 308 305 304 303 302 301 300 298 294 290 288 290 292 294 294 294 293 291 288 282 273 264 256 251 248 245 242 238 235 234 235 236 236 235 234 237 240 242 241 238 239 241 243 240 238 237 240 240 238 236 235 241 247 252 252 236 220 208 199 191 189 189 191 190 191 191 190 190 192 196
322 322 322 323 324 324 324 324 323 320 317 314 312 311 311 312 313 312 309 308 306 303 303 301 297 293 290 289 289 288 288 289 290 290 291 289 285 278 268 261 254 249 246 244 242 240 238 236 233 230 229 232 237 241 242 237 234 234 235 233 232 233 237 238 237 234 232 235 239 242 245 237 223 209 197 188 185 186 187 187 188 189 188 189 192 196
321 321 322 323 324 325 326 326 324 322 319 316 314 313 313 313 314 314 311 309 307 305 303 301 299 296 293 291 288 286 285 285 285 286 286 285 284 280 274 267 261 255 250 247 244 242 241 237 232 228 225 226 231 237 241 237 234 231 231 229 228 230 234 237 236 232 229 230 233 236 239 239 229 213 197 188 186 187 186 185 185 186 187 189 192 195
322 322 322 323 325 325 326 325 324 322 320 318 317 316 315 315 314 313 310 307 306 304 302 300 298 296 293 291 289 288 287 287 285 284 282 282 282 281 279 275 271 267 262 255 248 243 240 237 232 227 223 222 223 227 233 234 233 230 229 228 227 226 230 233 233 230 226 227 227 230 235 239 233 220 205 195 190 188 187 184 183 184 186 189 192 195
324 324 324 325 326 326 326 326 325 323 321 321 319 318 317 316 315 313 312 310 309 306 302 299 295 292 290 290 290 290 291 291 290 288 286 286 286 284 282 280 278 277 275 271 263 254 243 239 233 228 222 219 218 218 222 224 225 226 228 227 225 223 225 229 230 228 226 225 225 226 229 232 227 217 206 199 193 189 189 185 184 184 185 187 191 193